CZ-6A DEB

Satellite information

Favourite Embed

Satellite Type and Status

DEBRISIN ORBIT

Key statistics

Satellite CZ-6A DEB at a glance.

Uptime

1024

Days in orbit

Revolutions

≈ 14.7

Per day

Orbit

SSO

Sun Synchronous Orbit

Inclination

98.7

Latest

Satellite identification and parameters

Extended collection of information and parameters for CZ-6A DEB.

Object identification

Identified? True

Debris? True

Object name: CZ-6A DEB

International designator: 2022-151GP

Object number (NORAD): 54463

Object ID (CCSDS): 54463

Country: PEOPLES REPUBLIC OF CHINA (PRC)

Current information (Y/N): Y

RCS size: SMALL

Orbital parameters

Period: 98.285 minutes

Inclination: 98.6787 deg

SMA: 7054.818 km

Apoapsis: 770.099 km

Periapsis: 583.268 km

RAAN: 312.9394 deg

Eccentricy: 0.01324137

Argument of periapsis: 41.2396 deg

Mean anomaly: 319.8717 deg

Mean motion: 14.6512277 rev/day

Mean motion (dot): 0.00008139 rev/day2

B* drag term: 0.0013396664 1/REarth

Two-line elements (TLE)

Creation date: Aug. 31, 2025, 2:26 a.m.

Reference frame: TEME

Reference center: EARTH

Epoch: Aug. 30, 2025, 10:27 p.m. UTC

TLE line 0: 0 CZ-6A DEB

TLE line 1: 1 54463U 22151GP 25242.93589148 .00008139 00000-0 13397-2 0 9991

TLE line 2: 2 54463 98.6787 312.9394 0132414 41.2396 319.8717 14.65122770148633

Live tracking on map

Real-time ground track for satellite CZ-6A DEB.

In-orbit conjunctions

A list of the most updated potential collisions computed for object CZ-6A DEB.

Target Orbit TCA Probability of collision Miss distance Type
COSMOS 1867 LEO 2025-04-26 05:47:34 0.0001434636 138.0 (m) PAYLOAD
SL-14 R/B LEO 2025-04-05 08:48:03 0.0007189755 321.0 (m) ROCKET BODY
METEOR 2-5 DEB LEO 2024-09-22 07:57:25 0.0001005456 152.0 (m) DEBRIS

Associated space launch

Chinese satellite reported for atmospheric/ocean/environmental/spatial parameter research purposes, details TBD.

CZ-6A DEB was lifted into orbit during the mission ‘Long March 6A | Yunhai 3’, on board a Long March 6A space rocket.

The launch took place on Nov. 11, 2022, 10:52 p.m. from Launch Complex 9A.

For more information about the launch, click the button.

Launch to space Long March 6A | Yunhai 3
Long March 6A | Yunhai 3

Agency: N/A

Status: Launch Successful

Launch date: Nov. 11, 2022, 10:52 p.m. UTC

Rocket: Long March 6A

Launch pad: Launch Complex 9A

Location: Taiyuan Satellite Launch Center, People's Republic of China

...

Latest news about this satellite

There are no fresh news available about this satellite. Check back as we update our databases every day.


Newsletter sign-up

Weekly statistics, charts and insights to help you stay on top of the space industry.